• In Moldova, Republic
  • List of Countries
  • For 7 days
  • Water Temperature
  • Satellite Maps
  • Weather Map
  • Weather Widgets
  • user-avatar
    Login

    Hourly Weather Kalgoorlie

    Today, 22 September, Friday

    Time Temperature Precipitation Wind Pressure Humidity
    00:00 +18°C° 0 mm 7 mps 723 mmHg 64%
    01:00 +18°C° 0 mm 7 mps 723 mmHg 66%
    02:00 +17°C° 0 mm 6 mps 722 mmHg 69%
    03:00 +17°C° 0 mm 6 mps 722 mmHg 71%
    04:00 +16°C° 0 mm 6 mps 722 mmHg 73%
    05:00 +16°C° 0 mm 6 mps 722 mmHg 75%
    06:00 +16°C° 0 mm 7 mps 722 mmHg 69%
    07:00 +17°C° 0 mm 9 mps 722 mmHg 64%
    08:00 +18°C° 0 mm 11 mps 722 mmHg 59%
    09:00 +18°C° 0 mm 12 mps 722 mmHg 55%
    10:00 +18°C° 0 mm 12 mps 722 mmHg 51%
    11:00 +19°C° 0 mm 13 mps 722 mmHg 48%
    12:00 +19°C° 0 mm 13 mps 721 mmHg 49%
    13:00 +18°C° 0 mm 14 mps 721 mmHg 49%
    14:00 +18°C° 0 mm 14 mps 720 mmHg 50%
    15:00 +17°C° 0.2 mm 14 mps 721 mmHg 53%
    16:00 +17°C° 0.2 mm 14 mps 721 mmHg 56%
    17:00 +15°C° 0.2 mm 14 mps 721 mmHg 58%
    18:00 +15°C° 0 mm 12 mps 722 mmHg 56%
    19:00 +16°C° 0 mm 11 mps 722 mmHg 54%
    20:00 +14°C° 0 mm 10 mps 723 mmHg 52%
    21:00 +13°C° 0 mm 9 mps 723 mmHg 56%
    22:00 +13°C° 0 mm 9 mps 724 mmHg 59%
    23:00 +12°C° 0 mm 9 mps 724 mmHg 62%

    Tomorrow, 23 September, Saturday

    Time Temperature Precipitation Wind Pressure Humidity
    00:00 +11°C° 0 mm 9 mps 724 mmHg 65%
    01:00 +11°C° 0 mm 8 mps 724 mmHg 68%
    02:00 +10°C° 0 mm 7 mps 724 mmHg 72%
    03:00 +10°C° 0 mm 7 mps 724 mmHg 74%
    04:00 +10°C° 0 mm 7 mps 725 mmHg 77%
    05:00 +9°C° 0 mm 6 mps 725 mmHg 79%
    06:00 +10°C° 0 mm 7 mps 725 mmHg 75%
    07:00 +11°C° 0 mm 8 mps 726 mmHg 71%
    08:00 +11°C° 0 mm 9 mps 726 mmHg 67%
    09:00 +12°C° 0 mm 9 mps 726 mmHg 63%
    10:00 +12°C° 0 mm 9 mps 726 mmHg 58%
    11:00 +12°C° 0 mm 8 mps 726 mmHg 54%
    12:00 +13°C° 0 mm 8 mps 726 mmHg 48%
    13:00 +16°C° 0 mm 9 mps 726 mmHg 42%
    14:00 +17°C° 0 mm 9 mps 726 mmHg 37%
    15:00 +16°C° 0 mm 8 mps 726 mmHg 37%
    16:00 +16°C° 0 mm 8 mps 726 mmHg 38%
    17:00 +16°C° 0 mm 7 mps 726 mmHg 39%
    18:00 +15°C° 0 mm 6 mps 726 mmHg 42%
    19:00 +14°C° 0 mm 4 mps 726 mmHg 45%
    20:00 +14°C° 0 mm 2 mps 727 mmHg 47%
    21:00 +13°C° 0 mm 3 mps 727 mmHg 48%
    22:00 +13°C° 0 mm 3 mps 726 mmHg 49%
    23:00 +13°C° 0 mm 3 mps 726 mmHg 51%

    Day after tomorrow, 24 September, Sunday

    Time Temperature Precipitation Wind Pressure Humidity
    00:00 +13°C° 0 mm 3 mps 726 mmHg 53%
    01:00 +12°C° 0 mm 4 mps 726 mmHg 56%
    02:00 +12°C° 0 mm 4 mps 725 mmHg 58%
    03:00 +12°C° 0 mm 4 mps 725 mmHg 62%
    04:00 +12°C° 0 mm 4 mps 725 mmHg 65%
    05:00 +12°C° 0 mm 4 mps 725 mmHg 69%
    06:00 +12°C° 0 mm 3 mps 725 mmHg 67%
    07:00 +12°C° 0 mm 3 mps 726 mmHg 65%
    08:00 +13°C° 0 mm 3 mps 726 mmHg 63%
    09:00 +14°C° 0 mm 4 mps 726 mmHg 56%
    10:00 +17°C° 0 mm 4 mps 726 mmHg 49%
    11:00 +17°C° 0 mm 5 mps 725 mmHg 41%
    12:00 +17°C° 0.1 mm 5 mps 725 mmHg 42%
    13:00 +17°C° 0.1 mm 6 mps 724 mmHg 42%
    14:00 +17°C° 0.1 mm 6 mps 724 mmHg 43%
    15:00 +17°C° 0.3 mm 5 mps 724 mmHg 44%
    16:00 +17°C° 0.3 mm 5 mps 724 mmHg 45%
    17:00 +17°C° 0.3 mm 5 mps 724 mmHg 46%
    18:00 +17°C° 0 mm 4 mps 724 mmHg 50%
    19:00 +16°C° 0 mm 3 mps 725 mmHg 54%
    20:00 +16°C° 0 mm 2 mps 725 mmHg 57%
    21:00 +15°C° 0 mm 2 mps 725 mmHg 61%
    22:00 +15°C° 0 mm 2 mps 725 mmHg 64%
    23:00 +14°C° 0 mm 2 mps 725 mmHg 67%

    25 September, Monday

    Time Temperature Precipitation Wind Pressure Humidity
    00:00 +13°C° 0.1 mm 3 mps 725 mmHg 69%
    01:00 +13°C° 0.1 mm 3 mps 724 mmHg 70%
    02:00 +12°C° 0.1 mm 3 mps 724 mmHg 71%
    03:00 +12°C° 0.1 mm 3 mps 724 mmHg 73%
    04:00 +12°C° 0.1 mm 4 mps 724 mmHg 74%
    05:00 +11°C° 0.1 mm 4 mps 724 mmHg 75%
    06:00 +12°C° 0 mm 4 mps 724 mmHg 70%
    07:00 +14°C° 0 mm 5 mps 725 mmHg 64%
    08:00 +15°C° 0 mm 6 mps 725 mmHg 59%
    09:00 +16°C° 0.1 mm 6 mps 725 mmHg 52%
    10:00 +18°C° 0.1 mm 7 mps 725 mmHg 45%
    11:00 +21°C° 0.1 mm 8 mps 724 mmHg 38%
    12:00 +20°C° 0.3 mm 8 mps 724 mmHg 40%
    13:00 +20°C° 0.3 mm 8 mps 723 mmHg 42%
    14:00 +20°C° 0.3 mm 8 mps 722 mmHg 43%
    15:00 +18°C° 0.3 mm 8 mps 722 mmHg 46%
    16:00 +18°C° 0.3 mm 7 mps 722 mmHg 49%
    17:00 +17°C° 0.3 mm 6 mps 722 mmHg 52%
    18:00 +16°C° 0.6 mm 5 mps 723 mmHg 57%
    19:00 +15°C° 0.6 mm 5 mps 723 mmHg 63%
    20:00 +15°C° 0.6 mm 5 mps 723 mmHg 68%
    21:00 +14°C° 0.2 mm 4 mps 723 mmHg 70%
    22:00 +14°C° 0.2 mm 4 mps 723 mmHg 71%
    23:00 +14°C° 0.2 mm 4 mps 723 mmHg 72%

    26 September, Tuesday

    Time Temperature Precipitation Wind Pressure Humidity
    00:00 +13°C° 0.1 mm 4 mps 723 mmHg 75%
    01:00 +12°C° 0.1 mm 3 mps 723 mmHg 78%
    02:00 +12°C° 0.1 mm 3 mps 723 mmHg 81%
    03:00 +11°C° 0 mm 3 mps 723 mmHg 81%
    04:00 +11°C° 0 mm 3 mps 723 mmHg 82%
    05:00 +11°C° 0 mm 3 mps 723 mmHg 82%
    06:00 +12°C° 0 mm 4 mps 723 mmHg 75%
    07:00 +13°C° 0 mm 5 mps 724 mmHg 67%
    08:00 +15°C° 0 mm 6 mps 724 mmHg 60%
    09:00 +16°C° 0 mm 7 mps 724 mmHg 52%
    10:00 +17°C° 0 mm 8 mps 723 mmHg 45%
    11:00 +20°C° 0 mm 8 mps 723 mmHg 37%
    12:00 +20°C° 0 mm 8 mps 723 mmHg 37%
    13:00 +18°C° 0 mm 8 mps 722 mmHg 38%
    14:00 +18°C° 0 mm 8 mps 721 mmHg 38%
    15:00 +18°C° 0 mm 7 mps 722 mmHg 38%
    16:00 +18°C° 0 mm 7 mps 722 mmHg 39%
    17:00 +19°C° 0 mm 6 mps 722 mmHg 39%
    18:00 +17°C° 0 mm 6 mps 722 mmHg 40%
    19:00 +17°C° 0 mm 5 mps 723 mmHg 42%
    20:00 +16°C° 0 mm 5 mps 723 mmHg 44%
    21:00 +16°C° 0.1 mm 6 mps 722 mmHg 47%
    22:00 +15°C° 0.1 mm 6 mps 722 mmHg 50%
    23:00 +15°C° 0.1 mm 7 mps 722 mmHg 53%

    27 September, Wednesday

    Time Temperature Precipitation Wind Pressure Humidity
    00:00 +15°C° 0.1 mm 7 mps 721 mmHg 56%
    01:00 +14°C° 0.1 mm 7 mps 721 mmHg 58%
    02:00 +14°C° 0.1 mm 7 mps 720 mmHg 61%
    03:00 +12°C° 0 mm 8 mps 721 mmHg 66%
    04:00 +12°C° 0 mm 8 mps 721 mmHg 71%
    05:00 +11°C° 0 mm 8 mps 721 mmHg 76%
    06:00 +11°C° 0.1 mm 9 mps 721 mmHg 73%
    07:00 +12°C° 0.1 mm 9 mps 722 mmHg 71%
    08:00 +12°C° 0.1 mm 10 mps 723 mmHg 68%
    09:00 +13°C° 0 mm 10 mps 723 mmHg 61%
    10:00 +16°C° 0 mm 10 mps 723 mmHg 53%
    11:00 +17°C° 0 mm 11 mps 723 mmHg 46%
    12:00 +18°C° 0 mm 11 mps 723 mmHg 43%
    13:00 +18°C° 0 mm 11 mps 723 mmHg 39%
    14:00 +19°C° 0 mm 11 mps 723 mmHg 36%
    15:00 +19°C° 0 mm 11 mps 723 mmHg 38%
    16:00 +18°C° 0 mm 10 mps 724 mmHg 41%
    17:00 +18°C° 0 mm 10 mps 725 mmHg 43%
    18:00 +17°C° 0 mm 9 mps 726 mmHg 49%
    19:00 +16°C° 0 mm 7 mps 726 mmHg 55%
    20:00 +14°C° 0 mm 6 mps 727 mmHg 61%
    21:00 +14°C° 0 mm 6 mps 728 mmHg 64%
    22:00 +13°C° 0 mm 5 mps 728 mmHg 68%
    23:00 +12°C° 0 mm 5 mps 728 mmHg 71%
    Show more